Location: Unspecified
(41.1637°N, 24.2901°E)
Time: 23:26:40
(UTC+01:00)

ISS - Pass Details

Date: 13 November 2019
Orbit: 412 x 421 km, 51.6° (Epoch: 15 November)

Event Time Altitude Azimuth Distance (km) Brightness Sun altitude
Exits shadow 04:15:32 42° 171° (S) 614 -2.9 -21.2°
Drops below altitude 10° 04:18:01 10° 142° (SE) 1,493 -0.4 -20.7°
Sets 04:20:08 0° 138° (SE) 2,352 0.8 -20.3°
